El Paso, TX (88586)

7:15 PM MST on February 08, 2016 (GMT -0700)
Shock | | Change Station
CLOSE
Current Station
Personal Weather Station
Location: El Paso, TX
Elevation: 3924 ft
Nearby Weather Stations

Elev 3924 ft 31.76 °N, 106.33 °W | Updated 12 minutes ago

Clear
Clear
54.3 °F
Feels Like 54.3 °F
N
7.3
Wind Variable Wind from SE

Today
High -- | Low -- °F
--% Chance of Precip.
Yesterday
High -- | Low -- °F
Precip. -- in
Pressure 30.24 in
Visibility 10.0 miles
Clouds Clear
Dew Point 19 °F
Humidity 25%
Rainfall 0.00 in
Snow Depth Not available.
6:53 AM 5:45 PM
New Moon, 0% visible
METAR KELP 090151Z 14004KT 10SM CLR 11/M09 A3030 RMK AO2 SLP238 T01111089
Pressure 30.24 in
Visibility 10.0 miles
Clouds Clear
Dew Point 19 °F
Humidity 25%
Rainfall 0.00 in
Snow Depth Not available.
6:53 AM 5:45 PM
New Moon, 0% visible
METAR KELP 090151Z 14004KT 10SM CLR 11/M09 A3030 RMK AO2 SLP238 T01111089

10-Day Weather Forecast

Almanac

Astronomy

Feb. 08, 2016 Rise Set
Actual Time
Civil Twilight
Nautical Twilight
Astronomical Twilight
Moon
Length of Visible Light
Length of Day
Tomorrow will be .
, % of the Moon is Illuminated

Today's Extremes

State Highs State Lows

Community

WunderPhotos

Upload Photos

1,891,527 photos uploaded!

WunderBlog® & News

Nearby

Air Quality

  Air Quality AQ Index Pollutant
Not available.

Snow Depth

Station Depth Elevation

Earthquake Activity

City Distance Mag. Time & Date
Minimum magnitude displayed is 2.5.

Coastal Water Temperatures

Place Temperature

Stations

Nearby Weather Stations

Station Location Temp. Windchill Dew Point Humidity Wind Precip. Elev Updated Type
                   

Watches & Warnings

There are currently no watches in effect.